Temp_Advection
nan nan nan nan nan nan nan nan nan nan nan nan nan nan nan nan nan nan nan nan nan nan nan nan nan nan nan nan nan nan nan nan nan nan nan nan nan nan nan nan nan nan nan
nan 0 0 0 0 0 0 0 0 0 -0 0 0 0 0 0 0 -0 0 0 0 -0 -0 0 -0 -0 -0 -0 -0 -0 -0 -0 -0 -0 -0 -0 -0 -0 -0 -0 -0 -0 nan
nan 0 0 0 0 0 0 0 0 0 0 -0 0 0 0 0 0 0 0 -0 0 0 0 0 -0 -0 -0 -0 -0 -0 -0 -0 -0 -0 -0 -0 -0 -0 -1 -1 -1 -1 nan
nan 1 0 0 0 0 0 -0 -0 -0 -0 -0 0 0 0 0 0 0 0 0 0 0 0 -0 -0 -0 -0 -0 -0 -0 -0 -0 -0 -0 -0 -0 -0 -0 -0 -1 -1 -1 nan
nan 1 0 0 0 0 0 0 -0 0 0 0 0 0 0 0 0 0 0 0 0 0 -0 -0 -0 -0 -0 -0 0 0 0 -0 -0 -0 -0 -0 -0 -0 -0 -0 -0 -0 nan
nan 1 0 0 0 0 -0 0 0 0 0 0 -0 0 0 0 0 0 0 0 0 0 -0 -0 -0 -0 -0 -0 -0 -0 -0 -0 0 -0 -0 -0 0 0 0 -0 -0 -0 nan
nan 0 0 0 0 0 0 0 0 -0 -0 -0 -0 -0 -0 0 0 0 0 0 0 0 -0 -0 -0 -0 -0 -0 -0 -0 -0 -0 0 0 -0 -0 -1 -0 0 -0 -0 -0 nan
nan -0 0 0 0 0 -0 -0 -0 -0 -0 -0 -0 -1 -0 -0 -0 -0 -0 0 0 0 -0 -0 -0 -0 -0 -0 -0 -0 -0 -0 -0 -0 -0 -0 -1 -1 -1 -1 -1 -1 nan
nan -0 -0 0 0 -0 -0 -0 -0 -0 -0 -1 -0 -0 -0 -0 -0 0 0 0 0 -0 -0 -0 -0 -0 -0 -0 -0 -0 -0 -0 -0 -0 0 -0 -0 -1 -1 -1 -1 -1 nan
nan 0 -0 0 0 0 0 0 0 0 0 -0 -0 -0 -0 -0 -0 -0 0 0 0 0 0 -0 -0 -0 -0 -0 -0 -0 -0 -0 -0 -0 0 0 -0 -0 -1 -1 -1 -1 nan
nan 1 -0 -0 0 0 0 0 0 0 0 0 -0 0 0 0 -0 -1 -0 -0 -0 0 0 0 -0 -0 -0 -0 -0 -0 -0 -1 -1 -0 0 0 -0 -1 -1 -1 -1 -1 nan
nan -0 -0 0 0 0 0 0 0 0 0 0 0 0 0 0 0 -0 -1 -0 -0 0 0 0 0 -0 -0 -0 -0 -0 -1 -1 -1 -1 0 0 -0 -1 -1 -1 -1 -1 nan
nan 0 0 0 1 1 0 0 0 0 0 0 0 0 0 0 0 0 -0 -0 -0 -0 0 0 0 0 -0 -0 -0 -1 -1 -1 -1 -1 -0 0 -0 -0 -0 -1 -1 -1 nan
nan 1 0 0 1 1 0 0 0 0 0 0 0 0 0 0 0 0 0 -0 -0 0 -0 0 0 0 0 -0 -0 -0 -1 -1 -1 -1 -1 -0 -0 -0 -0 -0 -0 -0 nan
nan -0 0 1 0 0 0 0 0 0 0 0 0 0 0 0 -0 -0 -0 -0 -0 -0 0 0 0 -0 -0 -0 -0 -0 -0 -0 -0 -0 -1 -0 -0 -1 -0 -0 -0 -0 nan
nan -0 0 0 0 0 0 0 0 0 0 0 0 -0 0 -0 -0 -0 -0 -0 -0 -0 -0 0 0 -0 -0 -0 0 -0 -0 -0 -0 0 0 0 0 -0 -0 -0 -0 -0 nan
nan -0 0 0 0 0 0 0 0 0 0 0 -0 0 -0 -0 -0 -0 -0 -0 -0 -0 -0 -0 -0 -0 -0 -0 -0 -0 -1 -1 -1 -0 0 0 0 0 -0 -1 -1 -0 nan
nan 0 0 0 0 0 0 0 0 0 0 0 -0 -0 -0 -0 -0 -0 -0 -0 -0 0 -0 -1 -1 -0 -0 -0 -0 -1 -1 -0 -0 -0 -0 -0 0 0 -0 -0 -1 -1 nan
nan 0 0 0 0 0 0 0 0 0 0 -0 -0 0 -0 -0 -0 -0 -0 -0 -0 0 0 -0 -0 -0 -0 -0 -1 -1 -1 -0 0 0 0 -0 0 0 0 -0 -0 -0 nan
nan 0 0 0 0 0 0 0 0 0 0 -0 -0 -0 -0 -0 0 -0 -0 -0 -0 0 0 -0 -0 -0 -1 -0 -1 -1 -1 -1 -0 -0 -0 -0 -0 0 0 0 0 0 nan
nan 0 0 0 0 0 0 0 0 0 -0 -0 0 -0 -0 -0 -0 -0 -0 -0 -0 -0 -0 -0 -0 -1 -0 -0 -0 -0 -1 -2 -2 -1 -1 -0 -0 -0 -0 -0 -0 -0 nan
nan 0 1 0 0 0 0 0 0 0 0 -0 -0 -0 -0 -0 -0 -0 -0 -0 -0 0 -0 -0 -0 -0 -0 -0 -0 -0 -0 -1 -2 -1 -2 -1 -1 -0 -0 -0 -0 -0 nan
nan 0 0 0 0 -0 0 0 0 -0 0 0 0 -0 -0 -0 -0 -0 -0 0 0 0 1 1 0 0 -0 0 0 -0 -0 -0 -0 -0 -0 -2 -1 -1 -0 0 0 0 nan
nan 0 0 0 0 0 0 -0 -0 -0 0 -0 -0 -0 -0 -0 -0 -0 -0 -0 0 0 1 1 1 1 0 0 0 0 0 -1 -1 -0 0 -1 -1 -1 -1 0 0 0 nan
nan 0 0 0 0 0 0 -0 0 0 -0 -0 -0 -0 -0 -0 -0 -0 -0 -0 -0 -0 0 0 1 1 1 1 0 0 1 0 -1 -1 -0 0 -1 -1 -2 -1 0 0 nan
nan nan nan nan nan nan nan nan nan nan nan nan nan nan nan nan nan nan nan nan nan nan nan nan nan nan nan nan nan nan nan nan nan nan nan nan nan nan nan nan nan nan nan
Wind_Speed
16 15 14 14 15 16 16 15 15 14 14 13 11 11 12 11 13 17 14 12 8 6 6 5 3 4 5 6 7 8 7 7 7 7 7 7 7 8 8 8 8 9 9
19 19 17 17 17 16 16 14 13 16 16 15 13 11 12 11 10 12 15 17 14 8 5 2 2 3 4 5 7 7 7 8 8 8 9 10 10 10 10 11 11 11 11
21 20 18 19 19 19 20 20 17 16 14 14 12 10 11 9 8 8 8 9 7 4 2 1 1 2 3 4 6 8 9 9 9 10 10 10 11 12 12 13 13 13 14
22 23 22 21 22 23 21 21 19 17 15 13 13 12 10 10 7 6 6 6 4 3 2 2 2 2 3 4 5 7 9 10 10 11 11 11 12 12 12 13 13 13 14
22 23 23 22 24 24 22 20 19 18 18 15 13 12 12 10 7 4 2 1 2 3 3 2 2 2 3 4 6 7 8 10 11 12 12 12 13 13 14 14 14 14 15
22 23 23 23 25 24 22 22 21 19 17 16 14 13 10 9 6 5 3 4 3 2 2 3 3 4 5 5 6 7 8 9 10 11 13 14 14 14 13 13 14 15 16
22 23 24 25 26 24 22 21 21 19 20 19 18 16 14 10 7 5 3 4 3 4 3 3 3 4 5 7 8 9 9 11 12 14 16 17 18 18 18 17 17 16 16
23 21 24 26 25 26 24 23 22 22 21 21 18 18 12 11 8 6 5 3 4 2 1 2 4 6 7 9 9 10 12 12 13 16 18 19 18 18 17 17 17 17 18
20 22 23 24 25 24 22 22 22 20 23 23 21 9 9 7 14 9 8 6 4 1 3 5 7 9 10 11 12 14 13 13 16 19 20 19 18 18 19 18 18 18 18
28 26 25 25 23 22 21 21 20 19 19 21 22 13 9 16 8 10 11 9 4 1 2 7 11 8 9 10 15 15 15 18 23 23 22 20 19 20 20 20 19 20 20
32 27 27 24 23 22 21 20 19 18 17 16 18 15 13 16 12 14 16 12 5 2 4 7 6 6 9 14 15 16 20 26 25 24 23 22 21 19 20 20 20 21 22
26 24 23 23 23 23 22 20 18 17 17 16 15 14 13 14 13 10 12 10 5 4 1 5 6 9 11 15 17 20 26 26 25 24 23 20 19 18 19 20 22 22 22
29 28 27 25 23 23 22 20 19 18 16 16 15 14 13 11 9 7 6 5 4 4 5 4 9 11 14 17 21 26 25 24 25 23 21 18 18 20 20 22 23 24 23
29 28 27 24 24 23 22 21 20 19 18 17 15 12 9 7 6 4 3 3 1 2 3 5 9 13 15 22 21 22 23 22 20 21 20 18 20 22 23 23 24 24 24
30 28 26 25 24 23 22 22 22 21 19 15 12 9 6 5 4 2 2 2 2 2 5 5 9 16 20 20 20 21 19 19 20 21 19 18 21 23 21 22 22 23 23
33 31 27 26 25 23 23 23 23 20 16 14 10 6 4 4 3 3 2 4 6 6 5 12 16 18 19 19 19 19 19 19 20 23 20 23 25 21 22 23 23 22 26
31 29 28 26 25 24 23 22 21 19 14 12 9 6 3 3 4 3 4 7 8 10 11 15 17 18 19 19 19 20 20 22 24 24 26 28 26 24 25 25 22 25 25
31 28 26 26 26 25 23 20 18 15 11 10 7 4 3 3 3 5 8 9 11 11 13 16 18 18 18 19 20 21 22 24 25 27 29 29 25 25 24 22 24 25 24
31 30 30 29 28 26 23 18 15 13 11 9 6 3 3 3 4 7 8 10 11 12 13 16 17 18 19 20 23 25 27 28 29 30 30 24 23 23 23 22 22 23 24
34 32 29 29 26 23 19 16 13 10 10 7 3 2 3 3 6 9 10 11 12 12 14 15 18 20 22 24 27 32 33 31 32 33 25 23 23 23 21 21 21 20 17
31 30 31 29 25 20 16 14 12 10 8 5 2 2 4 6 8 10 12 13 14 15 16 17 20 22 24 27 30 32 33 34 34 30 30 30 29 27 23 21 20 19 20
32 31 28 25 22 19 15 12 9 8 6 4 4 5 7 9 11 12 13 15 15 13 15 17 18 21 24 28 31 32 30 33 35 30 36 35 30 25 22 22 22 20 19
32 28 25 21 19 16 13 11 9 7 5 4 4 5 8 10 12 12 13 14 14 13 13 14 18 22 27 28 28 29 29 30 31 33 34 34 24 26 27 26 21 14 14
29 26 23 19 17 15 12 9 7 6 4 4 5 7 10 11 13 14 14 16 16 16 17 18 19 23 24 22 22 25 26 28 30 28 28 33 27 33 33 26 6 8 17
27 24 21 18 14 13 11 9 7 5 4 6 7 10 11 13 16 17 18 19 19 18 18 18 19 20 19 21 22 23 25 28 30 31 27 20 32 35 35 18 2 25 17
25 23 20 16 14 11 10 8 6 5 5 6 8 10 11 12 15 17 19 20 20 19 20 19 20 21 21 21 20 20 22 24 26 27 17 30 32 27 25 16 25 29 26
Wind_Direction
223 215 201 192 178 170 165 169 172 171 181 184 187 174 183 187 167 175 181 189 201 208 278 317 337 347 353 353 358 1 0 359 354 348 343 339 334 330 325 318 314 311 308
219 209 200 190 183 178 172 179 183 179 182 192 193 184 180 192 185 183 199 210 225 247 264 282 321 338 346 349 353 357 359 357 354 352 348 344 340 336 332 327 322 317 312
215 212 205 199 185 185 183 187 187 186 188 184 193 184 177 185 189 176 171 181 200 198 206 250 326 345 6 8 0 354 353 352 349 345 342 337 332 331 329 326 325 323 318
211 208 207 200 191 191 192 192 196 190 191 185 185 180 167 160 164 166 163 151 153 148 141 106 78 38 14 0 352 342 338 337 333 328 325 322 321 321 321 323 322 321 321
212 208 206 198 195 194 192 196 191 190 181 173 163 158 162 169 174 193 168 153 134 125 110 75 45 31 2 343 334 327 330 328 328 327 327 327 327 326 325 322 320 317 315
216 210 204 198 197 197 190 188 188 180 177 174 166 160 154 156 173 177 158 150 132 103 75 60 22 349 338 328 337 340 342 342 338 333 329 329 327 327 329 326 323 322 315
219 213 208 200 198 201 195 192 188 181 174 175 168 164 165 171 179 186 194 138 91 95 91 27 351 354 337 328 335 336 337 329 324 326 330 329 325 322 321 323 321 313 307
230 219 210 203 198 198 194 192 191 180 177 174 166 153 147 158 182 176 176 145 126 125 79 4 334 334 326 328 327 330 329 329 327 326 327 326 330 330 330 328 322 316 310
225 228 214 205 198 197 194 188 183 185 179 172 172 158 158 169 155 153 157 141 145 42 352 321 320 325 325 325 328 328 328 326 325 324 322 327 331 330 327 324 319 312 304
215 229 215 203 196 189 190 185 181 179 185 184 181 197 193 171 163 157 157 148 153 177 303 323 318 322 324 323 324 323 322 323 320 322 320 324 328 323 322 319 315 314 310
189 212 208 200 191 184 185 185 178 175 173 183 186 185 168 167 171 160 161 166 191 223 305 323 322 318 314 319 321 316 316 318 320 319 319 325 330 326 322 321 321 318 314
172 202 202 195 187 179 179 176 170 170 172 172 166 163 156 158 156 159 157 168 180 174 294 326 279 300 309 315 314 311 314 317 319 322 322 329 327 326 325 323 322 321 316
181 194 193 189 181 177 173 171 165 162 159 157 149 150 144 141 139 147 145 153 162 145 168 292 272 296 300 309 310 311 318 323 327 332 335 332 327 327 327 324 324 321 319
178 189 185 181 179 173 167 162 155 152 149 145 143 139 132 130 121 117 117 116 99 187 174 216 274 292 300 309 316 323 326 331 336 333 329 328 327 326 324 323 322 321 320
176 189 180 178 172 165 162 157 151 149 147 140 134 129 119 127 94 75 50 42 25 353 334 273 297 304 314 325 328 330 334 332 331 330 335 330 323 321 321 319 317 314 312
179 180 174 173 165 161 158 154 150 144 145 138 125 121 125 95 94 44 4 1 354 341 323 303 311 318 324 326 330 326 325 323 325 329 330 321 324 323 315 314 317 310 312
175 171 170 166 161 157 153 154 148 143 140 128 119 120 113 80 41 17 350 347 341 332 314 311 317 322 324 324 323 325 328 328 328 322 319 324 320 318 317 318 312 310 313
169 167 166 162 158 155 153 154 146 138 130 124 112 122 94 44 355 351 346 340 338 326 313 314 320 324 325 326 329 330 330 325 324 321 326 324 320 319 322 315 308 310 308
166 168 166 161 157 154 151 150 143 136 125 109 116 131 65 12 343 342 338 339 335 325 319 318 322 324 324 329 331 333 330 330 328 330 334 329 327 322 320 322 314 305 303
164 161 159 156 153 151 150 148 139 129 118 111 126 74 47 346 346 350 344 340 333 329 325 322 321 325 330 333 333 333 333 331 329 336 331 333 329 325 321 321 322 324 320
156 156 156 154 150 149 149 143 129 118 112 125 145 51 16 353 346 349 347 342 336 332 327 323 322 326 328 329 331 332 330 329 329 337 330 332 330 323 325 321 315 317 316
154 156 154 151 148 148 141 129 125 124 138 111 65 14 355 347 347 350 345 341 333 323 317 319 321 319 321 325 327 327 327 327 329 332 328 326 330 328 331 322 320 313 312
155 152 150 148 150 144 135 142 136 128 119 91 49 5 353 342 342 345 340 337 331 320 314 313 310 313 317 322 322 320 320 320 318 319 320 318 331 328 333 332 325 307 306
152 154 152 149 149 146 136 121 123 119 97 62 18 6 351 340 339 339 339 330 326 328 323 320 314 316 317 320 315 317 318 312 310 316 324 317 331 330 330 339 348 9 327
156 152 150 149 145 131 132 128 115 106 55 25 8 356 341 338 339 335 323 326 329 327 323 320 320 320 319 317 319 313 315 317 318 316 328 319 326 326 330 348 287 333 332
156 153 146 142 136 138 126 112 94 62 35 11 356 343 333 329 325 320 321 324 327 327 324 323 323 321 320 319 316 313 312 311 313 322 321 320 323 330 328 333 310 325 329
Height
1514 1517 1519 1521 1523 1524 1526 1528 1530 1533 1535 1536 1536 1538 1538 1539 1542 1543 1545 1547 1548 1548 1548 1548 1548 1548 1548 1547 1546 1546 1545 1545 1544 1543 1542 1541 1540 1540 1539 1538 1537 1536 1535
1510 1514 1517 1519 1521 1523 1524 1527 1529 1531 1534 1535 1536 1537 1538 1539 1541 1542 1543 1545 1546 1547 1547 1547 1547 1547 1547 1547 1546 1545 1545 1544 1544 1543 1541 1540 1539 1538 1537 1536 1535 1534 1533
1507 1510 1513 1517 1519 1521 1523 1525 1527 1529 1532 1534 1536 1537 1538 1539 1540 1541 1542 1543 1544 1545 1546 1546 1546 1546 1546 1546 1545 1545 1544 1544 1543 1542 1541 1539 1538 1537 1535 1534 1533 1531 1530
1504 1508 1512 1515 1517 1519 1521 1524 1526 1528 1530 1533 1535 1537 1538 1539 1540 1541 1542 1543 1544 1545 1545 1545 1545 1546 1545 1545 1544 1543 1543 1542 1541 1540 1539 1537 1536 1534 1533 1532 1530 1529 1528
1504 1506 1510 1513 1515 1516 1518 1521 1524 1526 1528 1531 1534 1536 1539 1540 1541 1542 1542 1543 1543 1544 1545 1545 1545 1545 1545 1544 1543 1542 1541 1540 1540 1538 1537 1535 1534 1532 1531 1530 1529 1527 1526
1503 1506 1509 1512 1514 1515 1516 1518 1521 1524 1527 1529 1533 1535 1539 1541 1542 1543 1543 1544 1544 1544 1544 1545 1545 1544 1543 1542 1541 1540 1539 1538 1538 1536 1535 1533 1531 1530 1529 1528 1527 1525 1524
1503 1504 1508 1509 1511 1515 1515 1516 1519 1522 1525 1528 1531 1535 1537 1541 1542 1542 1543 1543 1544 1544 1543 1544 1543 1543 1542 1540 1540 1539 1538 1536 1535 1534 1533 1531 1529 1527 1525 1523 1522 1522 1521
1500 1503 1506 1508 1509 1512 1513 1515 1517 1518 1521 1526 1529 1533 1536 1541 1542 1542 1542 1543 1544 1544 1543 1542 1542 1541 1540 1539 1538 1537 1536 1534 1532 1531 1529 1527 1525 1523 1521 1520 1518 1517 1516
1498 1503 1506 1508 1509 1510 1512 1514 1515 1516 1518 1523 1526 1529 1533 1534 1539 1541 1541 1543 1543 1543 1543 1543 1541 1539 1539 1538 1536 1534 1533 1531 1529 1527 1525 1523 1522 1520 1518 1515 1513 1511 1509
1493 1503 1505 1508 1508 1507 1511 1513 1514 1514 1518 1520 1524 1527 1527 1528 1532 1539 1540 1541 1541 1540 1542 1543 1542 1538 1536 1535 1534 1532 1530 1528 1525 1523 1520 1519 1517 1515 1512 1510 1507 1504 1502
1488 1500 1506 1505 1505 1506 1509 1512 1512 1513 1517 1520 1522 1524 1526 1527 1530 1532 1536 1538 1540 1539 1540 1541 1540 1538 1535 1533 1531 1529 1527 1525 1521 1518 1515 1513 1511 1509 1507 1504 1501 1498 1495
1481 1497 1500 1503 1504 1504 1507 1509 1510 1512 1516 1518 1521 1523 1525 1527 1529 1531 1534 1536 1539 1539 1538 1537 1539 1537 1533 1530 1529 1526 1524 1521 1516 1512 1510 1508 1506 1503 1500 1498 1495 1492 1489
1481 1494 1499 1502 1503 1504 1505 1507 1508 1512 1516 1519 1521 1524 1525 1527 1529 1531 1532 1534 1535 1536 1536 1533 1536 1534 1531 1527 1524 1522 1519 1515 1512 1507 1505 1503 1500 1496 1494 1491 1489 1486 1483
1480 1494 1497 1499 1504 1503 1504 1506 1507 1512 1517 1519 1522 1524 1524 1527 1528 1530 1531 1531 1532 1533 1532 1531 1533 1531 1528 1524 1520 1517 1514 1511 1507 1504 1501 1498 1495 1492 1489 1486 1484 1481 1478
1480 1493 1495 1499 1502 1502 1504 1505 1506 1513 1517 1520 1521 1524 1525 1527 1526 1529 1530 1529 1529 1528 1527 1528 1529 1527 1523 1519 1516 1513 1510 1507 1504 1501 1497 1495 1491 1487 1485 1482 1479 1476 1473
1479 1489 1492 1498 1499 1501 1504 1506 1509 1513 1516 1519 1519 1524 1527 1526 1526 1527 1529 1527 1524 1525 1525 1525 1524 1521 1518 1515 1512 1510 1507 1504 1501 1496 1493 1489 1485 1482 1479 1476 1473 1470 1466
1480 1485 1491 1495 1497 1501 1505 1510 1512 1514 1515 1516 1519 1523 1527 1526 1526 1527 1527 1525 1522 1521 1521 1522 1520 1516 1513 1510 1508 1505 1502 1498 1495 1491 1487 1483 1479 1475 1472 1469 1467 1464 1460
1480 1485 1490 1495 1497 1503 1508 1513 1513 1514 1514 1515 1518 1525 1525 1526 1527 1525 1524 1522 1519 1518 1518 1517 1515 1512 1510 1506 1504 1500 1497 1494 1490 1485 1480 1476 1472 1468 1465 1462 1459 1456 1454
1478 1486 1492 1495 1500 1505 1509 1513 1512 1513 1512 1513 1520 1525 1523 1525 1525 1523 1521 1518 1516 1516 1514 1512 1510 1508 1506 1502 1499 1496 1492 1487 1483 1479 1474 1470 1467 1462 1459 1456 1453 1450 1447
1481 1486 1492 1498 1502 1506 1508 1512 1510 1511 1511 1514 1522 1523 1522 1524 1523 1519 1517 1515 1514 1512 1511 1508 1506 1504 1501 1498 1494 1489 1484 1481 1476 1473 1469 1466 1462 1458 1455 1451 1447 1444 1441
1481 1488 1494 1499 1501 1506 1510 1509 1508 1510 1511 1517 1523 1521 1521 1521 1520 1517 1513 1512 1510 1508 1507 1504 1503 1499 1495 1492 1488 1484 1479 1474 1470 1467 1463 1460 1456 1452 1449 1446 1443 1439 1437
1483 1491 1495 1498 1501 1506 1507 1507 1509 1512 1516 1518 1518 1520 1520 1518 1517 1513 1511 1510 1508 1506 1504 1501 1498 1495 1491 1488 1484 1480 1476 1471 1464 1464 1458 1453 1452 1447 1444 1441 1437 1435 1432
1487 1491 1494 1498 1503 1505 1506 1510 1511 1515 1517 1516 1517 1518 1516 1516 1513 1511 1508 1507 1506 1504 1501 1497 1494 1491 1487 1484 1480 1476 1473 1468 1464 1460 1457 1450 1448 1442 1439 1435 1431 1428 1427
1488 1494 1498 1501 1505 1507 1507 1510 1512 1515 1516 1515 1515 1514 1514 1514 1510 1507 1505 1505 1503 1500 1496 1493 1490 1487 1484 1481 1477 1473 1468 1464 1461 1458 1454 1445 1442 1436 1432 1429 1425 1425 1424
1492 1496 1500 1504 1505 1505 1509 1512 1512 1514 1514 1513 1512 1510 1512 1510 1506 1504 1502 1500 1498 1495 1493 1490 1487 1484 1481 1477 1473 1468 1464 1460 1454 1451 1449 1443 1438 1430 1427 1423 1422 1420 1418
1494 1498 1500 1503 1505 1510 1510 1510 1510 1510 1511 1512 1511 1509 1508 1506 1503 1501 1498 1495 1493 1490 1488 1486 1483 1480 1476 1472 1469 1466 1462 1458 1453 1446 1445 1441 1435 1432 1420 1417 1418 1415 1412